TimePDT,TemperatureF,Dew PointF,Humidity,Sea Level PressureIn,VisibilityMPH,Wind Direction,Wind SpeedMPH,Gust SpeedMPH,PrecipitationIn,Events,Conditions,WindDirDegrees,DateUTC
12:55 AM,36.0,26.1,67,30.05,10.0,Calm,Calm,-,N/A,,Clear,0,2013-09-19 07:55:00
1:55 AM,34.0,26.1,73,30.06,10.0,Calm,Calm,-,N/A,,Clear,0,2013-09-19 08:55:00
2:55 AM,30.9,25.0,79,30.05,10.0,Calm,Calm,-,N/A,,Clear,0,2013-09-19 09:55:00
3:55 AM,30.9,25.0,79,30.04,10.0,Calm,Calm,-,N/A,,Clear,0,2013-09-19 10:55:00
4:55 AM,32.0,26.1,79,30.04,10.0,Calm,Calm,-,N/A,,Clear,0,2013-09-19 11:55:00
5:55 AM,27.0,24.1,89,30.05,10.0,Calm,Calm,-,N/A,,Clear,0,2013-09-19 12:55:00
6:55 AM,28.9,25.0,85,30.06,10.0,Calm,Calm,-,N/A,,Clear,0,2013-09-19 13:55:00
7:55 AM,37.0,28.0,70,30.06,10.0,Calm,Calm,-,N/A,,Clear,0,2013-09-19 14:55:00
8:55 AM,48.9,30.9,50,30.03,10.0,Calm,Calm,-,N/A,,Clear,0,2013-09-19 15:55:00
9:55 AM,60.1,28.9,31,30.00,10.0,NE,3.5,-,N/A,,Clear,40,2013-09-19 16:55:00
10:55 AM,66.9,27.0,22,29.98,10.0,Calm,Calm,-,N/A,,Clear,0,2013-09-19 17:55:00
11:55 AM,73.0,27.0,18,29.96,10.0,Variable,4.6,-,N/A,,Clear,0,2013-09-19 18:55:00
12:55 PM,75.9,23.0,14,29.94,10.0,South,10.4,19.6,N/A,,Clear,170,2013-09-19 19:55:00
1:55 PM,78.1,21.0,12,29.92,10.0,South,13.8,19.6,N/A,,Clear,180,2013-09-19 20:55:00
2:55 PM,79.0,19.9,11,29.90,10.0,South,11.5,-,N/A,,Clear,170,2013-09-19 21:55:00
3:55 PM,80.1,18.0,10,29.88,10.0,SSE,15.0,20.7,N/A,,Clear,160,2013-09-19 22:55:00
4:55 PM,79.0,16.0,9,29.86,10.0,SSE,10.4,17.3,N/A,,Clear,160,2013-09-19 23:55:00
5:55 PM,77.0,19.0,11,29.87,10.0,SSE,9.2,-,N/A,,Clear,160,2013-09-20 00:55:00
6:55 PM,69.1,28.9,22,29.88,10.0,SE,4.6,-,N/A,,Clear,130,2013-09-20 01:55:00
7:55 PM,62.1,27.0,26,29.88,10.0,SSE,4.6,-,N/A,,Clear,160,2013-09-20 02:55:00
8:55 PM,57.9,24.1,27,29.88,10.0,Calm,Calm,-,N/A,,Clear,0,2013-09-20 03:55:00
9:55 PM,59.0,24.1,26,29.86,10.0,SSE,6.9,-,N/A,,Clear,160,2013-09-20 04:55:00
10:55 PM,51.1,25.0,36,29.86,10.0,Calm,Calm,-,N/A,,Clear,0,2013-09-20 05:55:00
11:55 PM,46.0,23.0,40,29.85,10.0,Calm,Calm,-,N/A,,Clear,0,2013-09-20 06:55:00